TimeEST,TemperatureF,Dew PointF,Humidity,Sea Level PressureIn,VisibilityMPH,Wind Direction,Wind SpeedMPH,Gust SpeedMPH,PrecipitationIn,Events,Conditions,WindDirDegrees,DateUTC
12:52 AM,39.0,21.0,49,30.32,10.0,NNW,11.5,-,N/A,,Mostly Cloudy,340,2012-12-06 05:52:00
1:52 AM,37.0,21.9,54,30.32,10.0,North,11.5,-,N/A,,Mostly Cloudy,350,2012-12-06 06:52:00
2:52 AM,36.0,21.9,57,30.33,10.0,NNW,8.1,-,N/A,,Clear,340,2012-12-06 07:52:00
3:52 AM,36.0,21.9,57,30.35,10.0,North,12.7,-,N/A,,Clear,360,2012-12-06 08:52:00
4:52 AM,36.0,21.0,55,30.35,10.0,North,11.5,-,N/A,,Clear,360,2012-12-06 09:52:00
5:52 AM,35.1,21.0,57,30.36,10.0,North,12.7,-,N/A,,Clear,10,2012-12-06 10:52:00
6:52 AM,35.1,19.9,54,30.38,10.0,NNE,12.7,-,N/A,,Scattered Clouds,30,2012-12-06 11:52:00
7:52 AM,36.0,19.9,52,30.39,10.0,NNE,12.7,-,N/A,,Mostly Cloudy,20,2012-12-06 12:52:00
8:52 AM,37.0,19.9,50,30.41,10.0,NE,8.1,-,N/A,,Scattered Clouds,40,2012-12-06 13:52:00
9:52 AM,37.9,21.0,51,30.41,10.0,NNE,8.1,-,N/A,,Mostly Cloudy,30,2012-12-06 14:52:00
10:52 AM,39.9,21.0,47,30.41,10.0,ENE,6.9,-,N/A,,Mostly Cloudy,70,2012-12-06 15:52:00
11:52 AM,41.0,19.9,43,30.37,10.0,Calm,Calm,-,N/A,,Mostly Cloudy,0,2012-12-06 16:52:00
12:52 PM,42.1,19.9,41,30.33,10.0,Calm,Calm,-,N/A,,Mostly Cloudy,0,2012-12-06 17:52:00
1:52 PM,43.0,21.0,42,30.31,10.0,SE,3.5,-,N/A,,Mostly Cloudy,140,2012-12-06 18:52:00
2:52 PM,44.1,21.0,40,30.30,10.0,Calm,Calm,-,N/A,,Mostly Cloudy,0,2012-12-06 19:52:00
3:52 PM,44.1,23.0,43,30.30,10.0,Calm,Calm,-,N/A,,Mostly Cloudy,0,2012-12-06 20:52:00
4:52 PM,42.1,23.0,47,30.29,10.0,South,4.6,-,N/A,,Mostly Cloudy,190,2012-12-06 21:52:00
5:52 PM,41.0,21.9,47,30.29,10.0,SW,6.9,-,N/A,,Mostly Cloudy,220,2012-12-06 22:52:00
6:52 PM,39.0,26.1,60,30.29,10.0,SE,8.1,-,N/A,,Mostly Cloudy,130,2012-12-06 23:52:00
7:52 PM,37.9,25.0,60,30.30,10.0,South,4.6,-,N/A,,Overcast,170,2012-12-07 00:52:00
8:52 PM,37.0,25.0,62,30.29,10.0,South,5.8,-,N/A,,Overcast,170,2012-12-07 01:52:00
9:52 PM,37.0,26.1,65,30.30,10.0,South,6.9,-,N/A,,Mostly Cloudy,170,2012-12-07 02:52:00
10:52 PM,37.0,26.1,65,30.30,10.0,South,6.9,-,N/A,,Mostly Cloudy,170,2012-12-07 03:52:00
11:52 PM,37.0,27.0,67,30.27,10.0,SSE,6.9,-,N/A,,Mostly Cloudy,160,2012-12-07 04:52:00